When you browse on this site, cookies collect data to enhance your experience and personalize the content and advertising you see.
Visit our Privacy Policy to learn more. By continuing to use the site, you agree to this use of cookies and data.
  • In Austria
  • List of Countries
  • For 7 days
  • Water Temperature
  • Weather Map
  • News
  • Weather Widgets
  • user-avatar
    Login

    Hourly Weather Lunin

    Today, 17 September, Tuesday

    Time Temperature Precipitation Wind Pressure Humidity
    00:00 +10°C° 0 mm 4 mps 744 mmHg 76%
    01:00 +8°C° 0 mm 4 mps 744 mmHg 79%
    02:00 +8°C° 0 mm 4 mps 744 mmHg 82%
    03:00 +7°C° 0 mm 4 mps 744 mmHg 81%
    04:00 +7°C° 0 mm 4 mps 744 mmHg 81%
    05:00 +7°C° 0 mm 4 mps 744 mmHg 80%
    06:00 +7°C° 0 mm 5 mps 744 mmHg 79%
    07:00 +8°C° 0 mm 5 mps 744 mmHg 78%
    08:00 +9°C° 0 mm 6 mps 744 mmHg 77%
    09:00 +10°C° 0 mm 6 mps 744 mmHg 70%
    10:00 +13°C° 0 mm 6 mps 744 mmHg 64%
    11:00 +14°C° 0 mm 6 mps 744 mmHg 57%
    12:00 +14°C° 0.1 mm 6 mps 743 mmHg 56%
    13:00 +15°C° 0.1 mm 6 mps 743 mmHg 55%
    14:00 +15°C° 0 mm 6 mps 742 mmHg 55%
    15:00 +14°C° 0.3 mm 5 mps 742 mmHg 59%
    16:00 +14°C° 0.3 mm 5 mps 741 mmHg 64%
    17:00 +13°C° 0.3 mm 4 mps 741 mmHg 69%
    18:00 +12°C° 0.2 mm 4 mps 741 mmHg 70%
    19:00 +11°C° 0.2 mm 4 mps 740 mmHg 72%
    20:00 +10°C° 0.2 mm 4 mps 740 mmHg 74%
    21:00 +10°C° 0.1 mm 4 mps 740 mmHg 77%
    22:00 +9°C° 0.1 mm 5 mps 739 mmHg 80%
    23:00 +8°C° 0.1 mm 5 mps 739 mmHg 83%

    Tomorrow, 18 September, Wednesday

    Time Temperature Precipitation Wind Pressure Humidity
    00:00 +8°C° 0.9 mm 5 mps 739 mmHg 86%
    01:00 +7°C° 0.9 mm 5 mps 738 mmHg 88%
    02:00 +6°C° 0.9 mm 5 mps 738 mmHg 90%
    03:00 +6°C° 0.9 mm 5 mps 738 mmHg 90%
    04:00 +6°C° 0.9 mm 5 mps 738 mmHg 89%
    05:00 +6°C° 0.9 mm 5 mps 738 mmHg 88%
    06:00 +5°C° 0.1 mm 6 mps 738 mmHg 88%
    07:00 +5°C° 0.1 mm 6 mps 739 mmHg 87%
    08:00 +4°C° 0.1 mm 7 mps 739 mmHg 87%
    09:00 +5°C° 0.1 mm 6 mps 739 mmHg 84%
    10:00 +7°C° 0.1 mm 6 mps 740 mmHg 82%
    11:00 +7°C° 0.1 mm 6 mps 740 mmHg 79%
    12:00 +8°C° 0.1 mm 6 mps 741 mmHg 75%
    13:00 +9°C° 0.1 mm 7 mps 741 mmHg 71%
    14:00 +10°C° 0.1 mm 7 mps 742 mmHg 67%
    15:00 +10°C° 0.1 mm 6 mps 742 mmHg 67%
    16:00 +10°C° 0.1 mm 6 mps 743 mmHg 68%
    17:00 +12°C° 0.1 mm 5 mps 744 mmHg 68%
    18:00 +10°C° 0.1 mm 5 mps 744 mmHg 73%
    19:00 +9°C° 0.1 mm 5 mps 745 mmHg 78%
    20:00 +8°C° 0.1 mm 5 mps 745 mmHg 83%
    21:00 +8°C° 0 mm 5 mps 746 mmHg 85%
    22:00 +7°C° 0 mm 5 mps 746 mmHg 86%
    23:00 +7°C° 0 mm 5 mps 747 mmHg 88%

    Day after tomorrow, 19 September, Thursday

    Time Temperature Precipitation Wind Pressure Humidity
    00:00 +6°C° 0 mm 5 mps 747 mmHg 90%
    01:00 +6°C° 0 mm 5 mps 748 mmHg 91%
    02:00 +5°C° 0 mm 5 mps 748 mmHg 93%
    03:00 +5°C° 0 mm 5 mps 748 mmHg 93%
    04:00 +5°C° 0 mm 4 mps 748 mmHg 92%
    05:00 +5°C° 0 mm 4 mps 748 mmHg 92%
    06:00 +5°C° 0 mm 4 mps 749 mmHg 90%
    07:00 +6°C° 0 mm 4 mps 749 mmHg 87%
    08:00 +6°C° 0 mm 5 mps 749 mmHg 85%
    09:00 +7°C° 0.1 mm 5 mps 749 mmHg 81%
    10:00 +8°C° 0.1 mm 5 mps 750 mmHg 77%
    11:00 +10°C° 0.1 mm 5 mps 750 mmHg 73%
    12:00 +10°C° 0.2 mm 5 mps 750 mmHg 72%
    13:00 +10°C° 0.2 mm 5 mps 750 mmHg 71%
    14:00 +12°C° 0.2 mm 5 mps 750 mmHg 70%
    15:00 +12°C° 0.1 mm 4 mps 750 mmHg 71%
    16:00 +12°C° 0.1 mm 4 mps 750 mmHg 71%
    17:00 +11°C° 0.1 mm 3 mps 750 mmHg 72%
    18:00 +10°C° 0.2 mm 3 mps 750 mmHg 77%
    19:00 +9°C° 0.2 mm 3 mps 750 mmHg 82%
    20:00 +8°C° 0.2 mm 3 mps 750 mmHg 87%
    21:00 +8°C° 0 mm 3 mps 750 mmHg 88%
    22:00 +7°C° 0 mm 3 mps 750 mmHg 89%
    23:00 +7°C° 0 mm 3 mps 750 mmHg 90%

    20 September, Friday

    Time Temperature Precipitation Wind Pressure Humidity
    00:00 +7°C° 0 mm 3 mps 750 mmHg 90%
    01:00 +6°C° 0 mm 4 mps 750 mmHg 91%
    02:00 +5°C° 0 mm 4 mps 750 mmHg 91%
    03:00 +5°C° 0 mm 4 mps 750 mmHg 93%
    04:00 +4°C° 0 mm 4 mps 750 mmHg 94%
    05:00 +3°C° 0 mm 4 mps 751 mmHg 96%
    06:00 +4°C° 0 mm 4 mps 751 mmHg 91%
    07:00 +3°C° 0 mm 5 mps 751 mmHg 87%
    08:00 +5°C° 0 mm 5 mps 751 mmHg 83%
    09:00 +5°C° 0 mm 6 mps 751 mmHg 74%
    10:00 +7°C° 0 mm 6 mps 752 mmHg 65%
    11:00 +9°C° 0 mm 6 mps 752 mmHg 57%
    12:00 +9°C° 0.2 mm 7 mps 752 mmHg 56%
    13:00 +10°C° 0.2 mm 7 mps 752 mmHg 55%
    14:00 +10°C° 0.2 mm 7 mps 751 mmHg 54%
    15:00 +9°C° 0.1 mm 6 mps 752 mmHg 57%
    16:00 +9°C° 0.1 mm 5 mps 752 mmHg 60%
    17:00 +10°C° 0.1 mm 4 mps 752 mmHg 63%
    18:00 +7°C° 0 mm 4 mps 752 mmHg 69%
    19:00 +7°C° 0 mm 3 mps 753 mmHg 76%
    20:00 +4°C° 0 mm 3 mps 753 mmHg 82%
    21:00 +4°C° 0 mm 3 mps 754 mmHg 85%
    22:00 +3°C° 0 mm 3 mps 754 mmHg 89%
    23:00 +3°C° 0 mm 3 mps 754 mmHg 92%

    21 September, Saturday

    Time Temperature Precipitation Wind Pressure Humidity
    00:00 +3°C° 0 mm 3 mps 755 mmHg 93%
    01:00 +2°C° 0 mm 3 mps 755 mmHg 94%
    02:00 +2°C° 0 mm 3 mps 756 mmHg 94%
    03:00 +2°C° 0 mm 3 mps 756 mmHg 95%
    04:00 +1°C° 0 mm 3 mps 756 mmHg 95%
    05:00 +1°C° 0 mm 3 mps 756 mmHg 96%
    06:00 +2°C° 0 mm 3 mps 756 mmHg 91%
    07:00 +3°C° 0 mm 3 mps 757 mmHg 86%
    08:00 +3°C° 0 mm 3 mps 757 mmHg 81%
    09:00 +5°C° 0 mm 3 mps 757 mmHg 70%
    10:00 +8°C° 0 mm 3 mps 757 mmHg 60%
    11:00 +10°C° 0 mm 3 mps 757 mmHg 50%
    12:00 +11°C° 0 mm 3 mps 757 mmHg 48%
    13:00 +11°C° 0 mm 3 mps 757 mmHg 46%
    14:00 +12°C° 0 mm 3 mps 757 mmHg 44%
    15:00 +12°C° 0 mm 3 mps 756 mmHg 48%
    16:00 +11°C° 0 mm 3 mps 756 mmHg 53%
    17:00 +11°C° 0 mm 3 mps 756 mmHg 57%
    18:00 +10°C° 0 mm 3 mps 756 mmHg 59%
    19:00 +10°C° 0 mm 3 mps 756 mmHg 61%
    20:00 +9°C° 0 mm 3 mps 756 mmHg 62%
    21:00 +8°C° 0 mm 3 mps 755 mmHg 64%
    22:00 +7°C° 0 mm 4 mps 755 mmHg 66%
    23:00 +7°C° 0 mm 4 mps 755 mmHg 68%

    22 September, Sunday

    Time Temperature Precipitation Wind Pressure Humidity
    00:00 +6°C° 0 mm 4 mps 755 mmHg 68%
    01:00 +6°C° 0 mm 4 mps 755 mmHg 67%
    02:00 +6°C° 0 mm 4 mps 755 mmHg 67%
    03:00 +6°C° 0 mm 4 mps 755 mmHg 70%
    04:00 +6°C° 0 mm 4 mps 755 mmHg 73%
    05:00 +6°C° 0 mm 4 mps 755 mmHg 76%
    06:00 +7°C° 0 mm 4 mps 754 mmHg 75%
    07:00 +8°C° 0 mm 4 mps 754 mmHg 73%
    08:00 +8°C° 0 mm 5 mps 754 mmHg 72%
    09:00 +10°C° 0 mm 5 mps 754 mmHg 66%
    10:00 +13°C° 0 mm 5 mps 754 mmHg 60%
    11:00 +15°C° 0 mm 5 mps 754 mmHg 54%
    12:00 +16°C° 0 mm 5 mps 754 mmHg 52%
    13:00 +17°C° 0 mm 5 mps 753 mmHg 50%
    14:00 +19°C° 0 mm 5 mps 753 mmHg 48%
    15:00 +18°C° 0 mm 4 mps 752 mmHg 52%
    16:00 +18°C° 0 mm 3 mps 752 mmHg 56%
    17:00 +17°C° 0 mm 2 mps 751 mmHg 60%
    18:00 +15°C° 0 mm 2 mps 751 mmHg 64%
    19:00 +14°C° 0 mm 2 mps 751 mmHg 67%
    20:00 +12°C° 0 mm 2 mps 751 mmHg 71%
    21:00 +10°C° 0 mm 2 mps 751 mmHg 73%
    22:00 +10°C° 0 mm 2 mps 750 mmHg 74%
    23:00 +10°C° 0 mm 1 mps 750 mmHg 75%
    Show more